[[{"header":{"parameterUnit":"m.s-1","parameterCategory":1,"la1":30.2991,"la2":30.254,"lo1":-89.0895,"lo2":-89.0444,"dy":0.0017,"dx":0.0017,"nx":28,"ny":28,"refTime":"2025-09-17T21:00:00:Z","depth":0,"parameterNumber":2,"parameterNumberName":"U-component_of_WINDS"},"data":[0,0,0,0,0,0,0,0,0,0,0,0,0,0,0,0,0,0,0,0,0,0,0,0,0,0,0,0,0,0,0,0,0,0,0,0,0,0,0,0,0,0,0,0,0,0,0,0,0,0,0,0,0,0,0,0,0,0,0.3182,0.3182,0,0.3171,0.3171,0.317,0.3191,0.3191,0.3192,0.3193,0.3179,0.3178,0.3177,0,0,0,0,0,0,0,0,0,0,0,0,0,0.3218,0.3218,0.3182,0.3182,0.3182,0.3171,0.3171,0.317,0.319,0.3191,0.3192,0.3193,0.3179,0.3178,0.3177,0,0,0,0,0,0,0,0,0,0,0,0,0,0.3204,0.3217,0.3182,0.319,0.3191,0.3171,0.3171,0.317,0.319,0.3191,0.3192,0.3193,0.318,0.3178,0.3177,0.3147,0,0,0.3172,0.3171,0,0,0,0,0,0,0,0,0.3205,0.3203,0.3189,0.319,0.3191,0.3183,0.3178,0.3162,0.319,0.319,0.3193,0.3194,0.3179,0.3178,0.3173,0.3146,0.3146,0.3172,0.3171,0.317,0.317,0,0,0,0,0,0,0,0.3206,0.3204,0.3177,0.3189,0.319,0.3194,0.3193,0.3175,0.3179,0.3191,0.3192,0.319,0.318,0.3175,0.3173,0.3146,0.3172,0.3171,0.317,0.3169,0.3091,0.309,0,0,0,0,0,0,0.3206,0.3204,0.3178,0.3177,0.3201,0.3192,0.3191,0.3184,0.318,0.318,0.319,0.3191,0.3177,0.3175,0.3173,0.3136,0.317,0.3169,0.3168,0.3093,0.3091,0.309,0,0,0,0,0,0,0.3207,0.3204,0.3178,0.3191,0.3188,0.3191,0.3183,0.3184,0.3179,0.3179,0.3179,0.3184,0.3178,0.3175,0.3153,0.3136,0.3168,0.3167,0.3094,0.3092,0.3091,0.3063,0,0,0,0,0,0,0.3208,0.3204,0.3193,0.3191,0.3187,0.3159,0.3182,0.3183,0.3176,0.3179,0.3174,0.3174,0.3178,0.3155,0.3151,0.3135,0.3166,0.3095,0.3093,0.3091,0.3066,0.3061,0.3057,0,0,0,0,0,0.3209,0.3186,0.3193,0.3189,0.3174,0.3158,0.3156,0.3162,0.3175,0.3164,0.3164,0.3174,0.3139,0.3153,0.3149,0.3131,0.3097,0.3094,0.3091,0.3068,0.3062,0.3057,0,0,0,0,0,0,0.3186,0.3186,0.3193,0.3169,0.3163,0.3162,0.3148,0.3156,0.3147,0.3149,0.3157,0.3155,0.3131,0.3129,0.3145,0.3101,0.312,0.3116,0.3103,0.3098,0.3093,0.3093,0.3165,0,0,0,0,0,0.3178,0.3166,0.3166,0.3144,0.3141,0.3145,0.3138,0.3143,0.3138,0.3136,0.3134,0.3128,0.3115,0.3106,0.3095,0.3066,0.3064,0.3052,0.3048,0.3044,0.304,0.3023,0.3017,0.3081,0.3081,0.3081,0,0,0.3161,0.316,0.3151,0.314,0.3136,0.3122,0.3143,0.3128,0.3117,0.3133,0.3112,0.311,0.3104,0.3078,0.3066,0.3075,0.3022,0.3041,0.3038,0.3036,0.3019,0.3013,0.3008,0.308,0.308,0.308,0,0,0.3123,0.3122,0.3102,0.3099,0.3093,0.3096,0.3091,0.3088,0.3088,0.3067,0.3078,0.3065,0.3044,0.3038,0.3033,0.2992,0.3,0.2988,0.2964,0.2947,0.2942,0.2937,0.2921,0.2915,0.2985,0.2985,0.2985,0,0.3103,0.3083,0.3091,0.3075,0.3068,0.3083,0.3063,0.3059,0.305,0.3044,0.3055,0.3028,0.3025,0.2996,0.2986,0.2982,0.2976,0.2988,0.2942,0.2937,0.2933,0.2918,0.2912,0.2983,0.2983,0.2983,0.2983,0,0.3057,0.3043,0.3028,0.3019,0.3011,0.2993,0.2998,0.2989,0.2995,0.2996,0.2973,0.297,0.2957,0.2951,0.2957,0.2924,0.2929,0.2941,0.2959,0.2925,0.2911,0.2905,0.2981,0.2981,0.2982,0.2982,0,0,0.3003,0.2999,0.2993,0.2988,0.2983,0.2972,0.2954,0.2942,0.2934,0.2927,0.2911,0.2892,0.2903,0.2896,0.2901,0.2887,0.2852,0.29,0.29,0.2889,0.2813,0.2802,0.2795,0.2859,0.2858,0.2857,0.2813,0,0.2963,0.2933,0.294,0.2909,0.2895,0.2909,0.2893,0.2888,0.2888,0.2876,0.2876,0.2862,0.2878,0.2874,0.286,0.2859,0.2837,0.2863,0.2842,0.2841,0.2841,0.2788,0.2777,0.2736,0.2807,0.2806,0.2805,0,0.2913,0.2904,0.2872,0.2868,0.2863,0.2849,0.2837,0.2826,0.282,0.2821,0.2814,0.2821,0.2802,0.2822,0.2795,0.2813,0.2805,0.2803,0.2801,0.2798,0.282,0.2781,0.2723,0.2716,0.2797,0.2798,0.2798,0,0.2874,0.2855,0.2832,0.2828,0.2824,0.2813,0.2811,0.2806,0.2798,0.2788,0.2783,0.2771,0.2764,0.2754,0.2758,0.2772,0.2729,0.275,0.2728,0.2727,0.2716,0.2717,0.2654,0.2715,0.2715,0.2715,0.2715,0,0.2828,0.2807,0.2815,0.2801,0.2778,0.2786,0.2762,0.2761,0.2757,0.2742,0.2754,0.274,0.2747,0.2732,0.2736,0.2711,0.2708,0.2708,0.2708,0.2705,0.2705,0.2699,0.2701,0.2713,0.2714,0.2714,0.2714,0,0.2779,0.2784,0.276,0.2758,0.2757,0.274,0.2738,0.2724,0.2726,0.2707,0.2703,0.2705,0.2689,0.2692,0.2675,0.2677,0.2646,0.2651,0.2648,0.2648,0.2625,0.2626,0.2554,0.2544,0.2614,0.2613,0.2612,0,0.2749,0.2733,0.2729,0.2721,0.2717,0.2703,0.2695,0.2703,0.2694,0.2685,0.2672,0.2657,0.2646,0.2619,0.2618,0.2604,0.2608,0.2584,0.2606,0.2603,0.2605,0.2605,0.2602,0.2579,0.2578,0.2577,0.2577,0,0.2693,0.2696,0.2684,0.2673,0.2663,0.2654,0.2647,0.2639,0.2646,0.2634,0.2619,0.2609,0.2592,0.2576,0.2563,0.2559,0.2568,0.257,0.2564,0.2559,0.2557,0.2556,0.2633,0.2571,0.2572,0.2572,0.2572,0.2573,0.2651,0.2637,0.2632,0.2618,0.2613,0.2606,0.2593,0.2593,0.258,0.2566,0.2571,0.2552,0.2545,0.2529,0.2524,0.2508,0.2517,0.2509,0.2506,0.2503,0.25,0.2562,0.2506,0.2507,0.2507,0.2507,0.2507,0,0.2594,0.2591,0.2579,0.2568,0.2556,0.2568,0.2559,0.2549,0.2532,0.2526,0.2514,0.2495,0.248,0.2478,0.2463,0.2451,0.2454,0.2447,0.2446,0.2445,0.2494,0.2499,0.2444,0.2444,0.2444,0.2444,0.2444,0.2444,0.2562,0.2539,0.2541,0.2515,0.2513,0.2495,0.2489,0.2481,0.2476,0.2454,0.2442,0.2441,0.2436,0.2421,0.2407,0.2407,0.24,0.239,0.239,0.2436,0.2442,0.2448,0.2453,0.2389,0.2388,0.2343,0.2342,0.2342]},{"header":{"parameterUnit":"m.s-1","parameterCategory":1,"la1":30.2991,"la2":30.254,"lo1":-89.0895,"lo2":-89.0444,"dy":0.0017,"dx":0.0017,"nx":28,"ny":28,"refTime":"2025-09-17T21:00:00:Z","depth":0,"parameterNumber":3,"parameterNumberName":"V-component_of_WINDS"},"data":[0,0,0,0,0,0,0,0,0,0,0,0,0,0,0,0,0,0,0,0,0,0,0,0,0,0,0,0,0,0,0,0,0,0,0,0,0,0,0,0,0,0,0,0,0,0,0,0,0,0,0,0,0,0,0,0,0,0,2.4925,2.4925,0,2.4935,2.4935,2.4936,2.4904,2.4903,2.4902,2.4901,2.491,2.4911,2.4913,0,0,0,0,0,0,0,0,0,0,0,0,0,2.4876,2.4877,2.4925,2.4925,2.4925,2.4935,2.4935,2.4936,2.4904,2.4903,2.4902,2.49,2.491,2.4911,2.4913,0,0,0,0,0,0,0,0,0,0,0,0,0,2.4893,2.4878,2.4925,2.4911,2.491,2.4935,2.4935,2.4936,2.4904,2.4903,2.4901,2.49,2.4909,2.4911,2.4913,2.4952,0,0,2.4918,2.4919,0,0,0,0,0,0,0,0,2.4892,2.4895,2.4913,2.4912,2.4911,2.4917,2.4922,2.4941,2.4905,2.4906,2.4901,2.4899,2.4914,2.4915,2.492,2.4953,2.4953,2.4918,2.4919,2.492,2.4921,0,0,0,0,0,0,0,2.4891,2.4894,2.4929,2.4913,2.4912,2.4903,2.4904,2.4925,2.4918,2.4906,2.4904,2.4905,2.4913,2.4918,2.492,2.4953,2.4918,2.492,2.4921,2.4921,2.5017,2.5018,0,0,0,0,0,0,2.4892,2.4894,2.4929,2.4929,2.4898,2.4905,2.4906,2.4916,2.4918,2.4916,2.4907,2.4904,2.4916,2.4918,2.492,2.4964,2.492,2.4922,2.4923,2.5015,2.5017,2.5018,0,0,0,0,0,0,2.4891,2.4895,2.4928,2.4911,2.4914,2.4908,2.4919,2.4917,2.4923,2.4918,2.4916,2.4914,2.4915,2.4918,2.4944,2.4964,2.4922,2.4924,2.5013,2.5016,2.5018,2.5054,0,0,0,0,0,0,2.489,2.4895,2.4911,2.4911,2.4915,2.4953,2.4921,2.4918,2.4926,2.4922,2.4924,2.4923,2.4914,2.4942,2.4946,2.4966,2.4925,2.5011,2.5014,2.5017,2.5051,2.5058,2.5063,0,0,0,0,0,2.4888,2.4921,2.4912,2.4916,2.4935,2.4954,2.4956,2.4945,2.4928,2.4943,2.4939,2.4923,2.4962,2.4945,2.4949,2.497,2.501,2.5013,2.5017,2.5049,2.5056,2.5063,0,0,0,0,0,0,2.4923,2.4921,2.4911,2.4945,2.495,2.4949,2.4967,2.4954,2.4964,2.4961,2.4946,2.4947,2.4975,2.4976,2.4956,2.5007,2.4983,2.4987,2.5005,2.5013,2.5018,2.5017,2.4927,0,0,0,0,0,2.4935,2.4952,2.4949,2.4979,2.4982,2.4974,2.4983,2.4974,2.4978,2.498,2.4978,2.4983,2.4996,2.5005,2.5017,2.5052,2.505,2.5068,2.5074,2.5079,2.5082,2.5098,2.5105,2.5029,2.5029,2.5029,0,0,2.496,2.496,2.4972,2.4986,2.4989,2.5005,2.4976,2.4995,2.5007,2.4983,2.5007,2.5006,2.501,2.504,2.5054,2.5041,2.5103,2.5083,2.5087,2.5088,2.5102,2.511,2.5116,2.5032,2.5031,2.5031,0,0,2.5012,2.5015,2.5039,2.5043,2.5047,2.5041,2.5047,2.5048,2.5046,2.507,2.5052,2.5065,2.5089,2.5091,2.5096,2.5148,2.5132,2.5152,2.5182,2.5198,2.5204,2.5209,2.5225,2.5231,2.5156,2.5156,2.5156,0,2.5041,2.5065,2.5054,2.5073,2.5079,2.5058,2.5082,2.5085,2.5093,2.5098,2.5084,2.5111,2.5113,2.5142,2.5154,2.516,2.5165,2.5151,2.5204,2.5209,2.5214,2.5229,2.5235,2.5158,2.5158,2.5158,2.5157,0,2.51,2.5117,2.5136,2.5143,2.5152,2.5174,2.5164,2.5174,2.5164,2.516,2.5184,2.5185,2.5195,2.5202,2.5193,2.523,2.5221,2.5206,2.5181,2.5223,2.5237,2.5243,2.5161,2.516,2.516,2.5159,0,0,2.5174,2.5174,2.5181,2.5183,2.5186,2.5198,2.5219,2.5229,2.5236,2.5243,2.5258,2.5277,2.5262,2.5268,2.5259,2.5273,2.5311,2.5256,2.5255,2.5264,2.5349,2.5358,2.5365,2.5302,2.5303,2.5304,2.5347,0,2.5223,2.5257,2.5247,2.5281,2.5295,2.5274,2.5292,2.5295,2.5291,2.5302,2.5298,2.5311,2.5292,2.5294,2.5308,2.5304,2.5327,2.5301,2.5314,2.5314,2.5311,2.5373,2.5384,2.5425,2.5353,2.5354,2.5355,0,2.5285,2.5293,2.5328,2.5326,2.5332,2.5347,2.5354,2.5366,2.5368,2.5364,2.537,2.5357,2.5376,2.5352,2.5376,2.5358,2.5363,2.5362,2.5363,2.5362,2.5336,2.5372,2.5438,2.5444,2.5364,2.5363,2.5362,0,2.5333,2.5352,2.5375,2.5377,2.5377,2.5388,2.5388,2.5389,2.5395,2.5402,2.5405,2.5414,2.5418,2.5425,2.5415,2.5399,2.544,2.5416,2.5436,2.5436,2.5443,2.5443,2.5509,2.5451,2.5451,2.545,2.545,0,2.5387,2.5409,2.5395,2.5409,2.5432,2.542,2.5443,2.5441,2.5442,2.5454,2.5438,2.545,2.5437,2.5447,2.544,2.5459,2.5462,2.5458,2.5455,2.5458,2.5458,2.546,2.5456,2.5452,2.5452,2.5451,2.5451,0,2.5443,2.5436,2.5458,2.5456,2.5455,2.5472,2.5469,2.5481,2.5476,2.5492,2.5495,2.5487,2.5498,2.5489,2.5501,2.5495,2.552,2.5515,2.5519,2.5517,2.5536,2.5533,2.5604,2.5612,2.5551,2.5551,2.5552,0,2.5478,2.5493,2.5492,2.5499,2.55,2.5511,2.5517,2.5505,2.5512,2.5515,2.5526,2.5536,2.5543,2.5561,2.5556,2.5564,2.5557,2.5582,2.5558,2.556,2.5555,2.5553,2.5553,2.5586,2.5586,2.5587,2.5588,0,2.5538,2.5533,2.5542,2.5549,2.5556,2.5562,2.5566,2.5572,2.556,2.5568,2.5579,2.5584,2.5595,2.5604,2.561,2.561,2.5596,2.5595,2.56,2.5601,2.5602,2.56,2.553,2.5593,2.5593,2.5592,2.5592,2.5592,2.5583,2.5595,2.5595,2.5605,2.5606,2.561,2.562,2.5616,2.5625,2.5633,2.5625,2.5638,2.5639,2.5645,2.5646,2.5656,2.5645,2.5653,2.5654,2.5655,2.5657,2.5603,2.5657,2.5657,2.5657,2.5657,2.5656,0,2.5641,2.5639,2.5649,2.5654,2.5661,2.5648,2.5651,2.5658,2.5669,2.5671,2.5678,2.5689,2.5698,2.5694,2.5701,2.5709,2.5702,2.5711,2.5709,2.5708,2.5667,2.5661,2.5715,2.5715,2.5715,2.5715,2.5715,2.5715,2.5671,2.569,2.5685,2.5704,2.5703,2.5715,2.5717,2.572,2.5721,2.5734,2.5741,2.5738,2.5737,2.5743,2.575,2.5749,2.5751,2.5761,2.5757,2.5718,2.5712,2.5706,2.57,2.5762,2.5762,2.5798,2.5798,2.5798]}]]